TimeCDT,TemperatureF,Dew PointF,Humidity,Sea Level PressureIn,VisibilityMPH,Wind Direction,Wind SpeedMPH,Gust SpeedMPH,PrecipitationIn,Events,Conditions,WindDirDegrees,DateUTC
12:00 AM,15.8,12.2,86,29.71,4.0,ENE,16.1,21.9,N/A,Snow,Light Snow,70,2012-10-09 05:00:00
1:00 AM,15,10,71,29.70,10,ENE,19.6,,,Snow,Light Snow,60,2012-10-09 06:00:00
1:00 AM,15.8,10.4,79,29.70,10.0,ENE,19.6,-,N/A,Snow,Light Snow,60,2012-10-09 06:00:00
2:00 AM,15.8,10.4,79,29.70,15.0,NE,20.7,-,N/A,Snow,Light Snow,50,2012-10-09 07:00:00
3:00 AM,15.8,10.4,79,29.70,4.0,NNE,20.7,-,N/A,Snow,Light Snow,30,2012-10-09 08:00:00
4:00 AM,24.8,10.4,54,29.70,4.0,NNE,24.2,-,N/A,Snow,Light Snow,30,2012-10-09 09:00:00
5:00 AM,14.0,10.4,86,29.71,8.0,North,18.4,24.2,N/A,Snow,Light Snow,10,2012-10-09 10:00:00
6:00 AM,15.8,10.4,79,29.72,15.0,North,23.0,-,N/A,Snow,Light Snow,10,2012-10-09 11:00:00
7:00 AM,15,10,71,29.74,15,NNE,27.6,,,Snow,Light Snow,20,2012-10-09 12:00:00
7:00 AM,15.8,10.4,79,29.74,15.0,NNE,16.1,27.6,N/A,Snow,Light Snow,20,2012-10-09 12:00:00
7:32 AM,-9999,-9999,N/A,-9999,15.0,North,24.2,-,N/A,,Unknown,10,2012-10-09 12:32:00
7:40 AM,-9999,-9999,N/A,-9999,8.0,North,26.5,-,N/A,,Unknown,10,2012-10-09 12:40:00
7:49 AM,-9999,-9999,N/A,-9999,1.5,North,28.8,-,N/A,,Unknown,10,2012-10-09 12:49:00
8:00 AM,14.0,10.4,86,29.74,1.5,North,26.5,33.4,N/A,Snow,Light Snow,10,2012-10-09 13:00:00
8:10 AM,-9999,-9999,N/A,-9999,1.0,North,28.8,-,N/A,,Unknown,10,2012-10-09 13:10:00
8:47 AM,-9999,-9999,N/A,-9999,2.0,North,28.8,-,N/A,,Unknown,10,2012-10-09 13:47:00
9:00 AM,14.0,8.6,79,29.77,1.5,North,25.3,31.1,N/A,Snow,Light Snow,10,2012-10-09 14:00:00
9:20 AM,-9999,-9999,N/A,-9999,15.0,North,26.5,-,N/A,,Unknown,10,2012-10-09 14:20:00
10:00 AM,14.0,8.6,79,29.78,15.0,North,20.7,26.5,N/A,Snow,Light Snow,10,2012-10-09 15:00:00
10:27 AM,-9999,-9999,N/A,-9999,15.0,North,23.0,-,N/A,,Unknown,10,2012-10-09 15:27:00
11:00 AM,12.2,5.0,73,29.79,15.0,NNE,23.0,28.8,N/A,Snow,Low Drifting Snow,20,2012-10-09 16:00:00
12:00 PM,10.4,5.0,79,29.81,15.0,North,20.7,-,N/A,,Partly Cloudy,10,2012-10-09 17:00:00
12:50 PM,-9999,-9999,N/A,-9999,15.0,NNE,19.6,-,N/A,,Unknown,20,2012-10-09 17:50:00
1:00 PM,14,7,62,29.83,15,NNE,19.6,,,Snow,Light Snow,20,2012-10-09 18:00:00
1:00 PM,14.0,6.8,73,29.83,15.0,NNE,19.6,-,N/A,Snow,Light Snow,20,2012-10-09 18:00:00
2:00 PM,15.8,8.6,73,29.84,15.0,North,23.0,-,N/A,Snow,Light Snow,360,2012-10-09 19:00:00
3:00 PM,12.2,6.8,79,29.85,15.0,North,23.0,28.8,N/A,Snow,Light Snow,10,2012-10-09 20:00:00
4:00 PM,14.0,6.8,73,29.87,15.0,North,23.0,-,N/A,Snow,Light Snow,360,2012-10-09 21:00:00
5:00 PM,12.2,5.0,73,29.89,15.0,North,21.9,-,N/A,Snow,Light Snow,360,2012-10-09 22:00:00
5:28 PM,-9999,-9999,N/A,-9999,15.0,North,21.9,-,N/A,,Unknown,10,2012-10-09 22:28:00
6:00 PM,10.4,3.2,73,29.90,15.0,NNE,25.3,-,N/A,Snow,Low Drifting Snow,20,2012-10-09 23:00:00
6:20 PM,-9999,-9999,N/A,-9999,15.0,North,16.1,-,N/A,,Unknown,350,2012-10-09 23:20:00
7:00 PM,11,6,71,29.91,15,NNW,21.9,,,Snow,Light Snow,340,2012-10-10 00:00:00
7:00 PM,10.4,6.8,85,29.91,15.0,NNW,21.9,-,N/A,Snow,Light Snow,340,2012-10-10 00:00:00
7:35 PM,-9999,-9999,N/A,-9999,15.0,NNW,19.6,-,N/A,,Unknown,340,2012-10-10 00:35:00
8:00 PM,6.8,1.4,79,29.91,15.0,North,23.0,-,N/A,Snow,Low Drifting Snow,350,2012-10-10 01:00:00
9:00 PM,6.8,1.4,79,29.91,15.0,North,18.4,-,N/A,,Partly Cloudy,350,2012-10-10 02:00:00
10:00 PM,6.8,1.4,79,29.92,15.0,NW,15.0,-,N/A,,Partly Cloudy,320,2012-10-10 03:00:00
10:27 PM,-9999,-9999,N/A,-9999,15.0,NW,13.8,-,N/A,,Partly Cloudy,320,2012-10-10 03:27:00
11:00 PM,5.0,1.4,85,29.92,15.0,NW,12.7,-,N/A,,Partly Cloudy,310,2012-10-10 04:00:00